Vorticity
6 4 4 4 3 3 2 3 3 4 5 6 7 7 7 7 6 5 5 5 5 7 9 10 10 10 10 9 8 6 5 7 9 10 10 8 7 6 5 7 8 9 10 10 8 8 7 8 9 9 9 7 7 8 8 8 9 9 10 9 10 11 10 11 12 7 6 11 12 8 8 10 10 9 10 7 6 8 7 7 6 5 6 6 7
2 2 2 3 3 3 4 4 5 5 6 7 7 7 7 7 7 7 7 8 9 10 10 10 11 11 9 7 6 5 6 10 12 10 8 6 5 6 6 8 9 10 10 8 7 8 9 9 8 7 7 7 7 9 9 9 10 10 11 11 10 12 13 12 13 12 9 9 11 11 9 10 11 10 11 10 7 7 8 8 8 6 5 6 6
4 4 5 5 5 5 5 6 6 5 6 6 6 8 8 8 9 9 10 10 10 9 9 10 10 8 7 6 5 5 9 11 10 6 5 5 5 6 8 9 9 9 8 8 9 10 8 7 6 6 8 9 9 10 10 10 11 10 11 12 11 11 12 13 13 13 13 10 10 12 12 11 11 11 12 12 10 9 8 8 9 9 7 5 6
7 7 7 6 6 6 6 5 6 5 6 7 8 9 9 9 10 10 10 9 7 7 7 6 6 6 6 6 4 8 12 11 7 4 4 5 5 8 9 9 9 9 9 10 9 7 6 6 7 8 9 10 10 10 11 10 11 11 10 11 11 11 11 12 13 13 13 12 10 11 12 11 11 10 11 12 12 11 10 9 8 10 10 9 7
7 6 5 6 6 6 6 6 7 7 7 8 9 9 10 10 10 10 9 8 7 7 6 6 8 8 7 7 9 14 13 8 4 3 4 6 8 9 8 8 10 10 9 8 6 6 7 8 10 10 10 10 10 10 10 10 10 10 10 10 11 12 12 12 12 13 14 13 11 11 12 13 11 10 11 12 12 11 12 12 10 8 9 11 10
5 4 3 6 6 6 7 8 8 7 7 8 8 10 11 11 11 10 9 10 9 9 9 9 8 7 8 13 17 14 8 4 4 5 7 9 9 8 9 10 11 9 7 6 6 8 10 10 10 10 9 9 9 9 9 9 10 11 12 12 12 13 13 14 14 14 15 15 15 13 12 13 13 12 11 13 13 11 10 11 13 12 10 9 11
4 2 3 5 5 6 7 8 8 8 7 8 9 10 11 10 11 10 10 11 10 10 12 13 12 15 19 20 13 6 3 4 6 8 9 9 8 10 11 11 8 6 7 8 9 10 10 10 9 8 8 8 9 10 10 11 13 14 14 14 14 15 14 14 15 15 15 15 16 17 16 15 16 15 13 13 14 15 14 11 9 12 13 10 10
3 3 3 4 5 7 8 7 8 7 7 8 9 10 10 10 10 10 10 11 10 13 18 21 23 23 18 11 4 3 6 7 8 9 8 9 11 11 10 7 6 7 9 10 10 10 9 9 8 7 8 10 11 13 14 14 15 15 15 14 14 14 14 13 13 13 14 13 13 14 14 14 15 15 15 14 13 14 18 17 11 8 11 12 10
3 3 3 5 7 8 7 7 7 7 7 8 9 10 10 9 9 9 11 9 8 11 13 13 13 10 5 3 5 7 8 8 8 9 9 11 11 9 6 7 8 10 10 9 9 8 8 8 8 10 11 13 15 16 15 16 15 14 14 13 13 13 13 13 13 12 12 13 12 12 12 12 12 12 12 13 13 12 14 17 17 11 10 11 10
3 2 4 6 7 7 7 7 8 8 8 9 11 11 9 8 7 8 8 5 6 10 9 4 1 2 4 8 9 9 9 9 10 11 11 11 8 6 7 9 10 10 9 8 7 7 8 10 11 14 15 16 16 15 15 16 15 15 14 14 13 13 12 13 13 14 14 14 14 15 14 14 14 14 13 12 12 12 11 12 16 16 14 12 9
2 4 6 6 7 7 8 8 8 8 10 11 12 10 10 12 10 8 8 7 10 14 12 5 3 6 9 10 10 9 10 10 11 11 9 7 6 8 9 9 9 8 7 7 7 9 11 13 15 15 16 16 15 15 15 14 12 13 13 12 13 13 14 14 14 15 16 16 17 18 18 18 18 19 19 18 16 15 13 11 11 12 16 16 11
3 7 7 6 8 9 8 9 9 10 11 11 12 14 14 12 9 10 13 15 16 16 12 9 9 10 10 10 10 10 10 11 10 8 6 6 8 10 9 9 8 7 7 8 10 12 15 15 15 15 15 16 15 14 12 11 11 11 10 11 13 13 13 14 14 15 14 14 13 12 13 14 14 15 16 18 19 18 18 17 15 12 12 15 14
6 7 6 7 10 9 9 10 10 11 10 10 13 13 8 4 6 11 15 14 14 13 12 11 10 9 9 9 10 10 10 9 7 6 7 9 10 9 8 8 7 7 9 11 13 15 15 15 15 15 16 15 13 12 11 11 11 10 11 12 12 13 14 13 13 12 13 16 19 24 30 33 34 33 31 27 24 22 19 17 18 18 15 13 14
7 6 7 9 10 9 9 10 10 10 10 9 10 9 5 5 9 12 12 11 11 11 10 9 8 9 9 9 10 10 8 7 6 8 10 10 9 8 7 7 8 10 12 14 15 15 14 15 16 15 14 13 11 11 11 11 10 11 13 14 13 14 13 11 13 21 31 41 47 50 49 44 40 38 39 42 43 43 40 32 24 22 19 16 15
6 6 8 9 9 9 10 10 10 11 10 8 8 8 9 10 11 11 11 11 11 10 9 9 8 9 9 9 9 8 6 7 8 9 10 8 8 7 7 8 11 13 15 15 15 14 14 16 16 13 12 11 11 11 11 10 12 13 14 14 14 12 11 17 31 43 48 46 38 28 18 11 12 16 21 28 33 39 47 50 48 41 31 22 17
6 7 9 9 9 10 10 10 11 12 10 9 9 10 10 10 11 12 11 10 9 9 8 8 8 8 9 9 8 7 7 9 9 9 8 7 7 7 9 12 14 15 15 14 14 16 16 15 14 12 11 11 11 11 11 12 14 15 14 14 11 10 19 38 48 41 28 16 6 3 9 14 19 19 18 18 17 18 23 30 41 53 53 42 25
6 8 10 9 9 9 9 10 10 10 10 9 10 10 10 11 11 11 9 9 9 8 7 8 8 9 9 8 6 7 8 10 9 8 8 7 8 10 12 15 15 15 14 15 16 16 14 12 12 11 11 11 10 10 12 14 15 14 13 11 8 15 36 49 38 16 6 4 1 7 22 32 30 26 24 22 22 22 22 18 18 29 49 60 48
8 10 10 9 9 9 9 9 9 8 9 9 10 10 10 11 11 9 9 8 7 7 7 8 9 9 8 6 7 8 9 9 8 8 8 8 10 14 15 16 15 14 15 16 16 14 11 10 11 11 11 11 10 12 14 15 13 12 11 8 9 28 50 42 16 2 4 4 4 13 25 28 24 21 18 18 26 33 32 27 19 12 21 44 57
8 9 8 8 9 9 9 10 8 8 8 8 10 10 11 11 10 8 8 7 6 7 8 9 9 8 7 6 8 9 9 8 8 8 8 11 14 16 16 15 14 15 15 14 12 11 11 11 11 11 11 10 11 13 15 14 11 11 11 7 14 41 54 30 6 5 5 -1 3 16 22 19 16 15 14 19 31 35 28 26 28 24 21 25 37
8 7 6 7 9 9 11 11 8 8 8 8 10 11 11 11 9 8 7 6 6 7 8 9 9 6 6 8 10 10 8 8 8 8 11 15 17 16 14 14 14 14 13 12 11 10 11 11 11 11 10 11 13 14 13 12 10 11 10 6 20 48 50 22 6 9 5 -2 3 16 22 18 11 14 21 28 33 29 23 23 24 27 30 24 23
6 5 5 7 9 11 13 11 9 8 7 9 11 11 10 9 7 6 6 6 7 8 8 9 7 5 8 10 9 8 8 7 8 11 15 17 16 14 13 13 13 13 11 11 10 10 10 10 11 12 11 12 14 12 11 11 10 10 9 6 21 45 42 18 8 10 9 3 2 14 25 19 11 19 27 28 32 31 26 26 27 28 33 32 28
5 5 6 7 8 11 13 11 9 9 8 10 12 11 9 7 5 5 6 6 8 9 8 7 6 7 10 10 9 8 8 8 11 14 17 16 13 12 12 12 12 11 10 10 10 10 11 11 11 12 12 13 13 10 10 11 9 10 9 6 19 39 38 23 14 12 13 5 -2 13 26 15 13 27 24 16 28 34 27 26 31 32 38 46 48
5 6 6 6 7 10 12 12 10 9 10 12 11 9 7 5 5 6 6 6 8 9 8 6 7 9 11 9 8 8 8 10 14 16 16 14 12 12 12 11 12 11 9 10 10 10 11 11 11 13 12 11 11 10 10 11 9 10 8 6 18 36 37 26 17 13 13 4 -4 11 25 14 12 23 20 18 30 30 21 25 29 26 33 48 55
5 6 5 6 8 9 12 12 10 9 11 11 10 8 6 4 5 6 6 8 9 8 6 7 8 10 10 8 8 8 10 14 17 16 15 13 11 11 11 11 11 11 10 11 10 10 11 11 12 13 11 10 11 10 11 11 9 10 10 5 14 34 40 29 18 13 10 3 -1 9 22 19 11 13 22 33 32 17 13 26 29 23 26 41 54
4 5 5 6 8 10 12 12 10 10 11 10 9 7 5 5 6 6 7 8 8 7 7 8 10 10 9 8 8 9 12 15 16 14 12 11 10 10 11 11 11 11 11 10 10 11 11 11 11 11 10 10 11 11 11 11 9 9 11 6 8 26 41 35 21 13 9 5 3 8 19 22 12 13 33 42 25 10 13 22 24 20 16 25 46
3 5 5 7 8 11 13 11 10 10 10 9 8 6 5 6 7 6 8 8 7 7 7 9 10 9 8 8 9 11 15 16 15 12 10 10 10 10 11 11 11 11 11 11 11 12 11 10 11 11 10 10 11 11 10 11 10 8 11 10 6 16 35 39 26 14 9 8 5 3 17 25 12 15 41 41 18 14 21 20 22 24 16 17 35
4 4 4 6 9 12 13 11 10 10 9 7 7 5 5 7 8 7 8 7 6 7 8 10 10 9 8 9 10 13 16 15 13 11 9 9 10 10 11 11 11 11 11 11 12 11 10 10 9 10 12 10 10 12 10 9 11 8 9 12 8 8 25 40 35 17 6 10 8 -2 10 26 16 18 41 34 12 17 21 13 18 23 12 11 26
3 4 5 7 11 13 12 10 10 11 9 7 6 5 6 7 8 8 8 7 7 8 9 10 9 7 9 10 11 14 16 14 11 10 9 10 10 9 10 10 10 10 10 11 13 11 9 9 9 9 12 11 9 11 10 8 10 9 8 12 11 6 14 31 40 28 10 10 11 -2 3 21 19 21 36 27 11 20 20 10 21 30 20 20 31
5 6 6 9 13 13 11 10 11 11 9 6 5 6 7 8 9 9 8 6 8 9 10 9 8 8 10 11 13 15 15 12 10 10 9 10 9 8 9 10 9 10 10 10 12 11 8 9 9 8 9 10 10 11 10 9 10 9 8 10 11 9 8 15 32 39 23 10 10 2 1 13 17 22 33 24 11 21 25 15 17 19 11 20 38
5 6 8 13 14 12 10 11 11 10 7 5 5 6 8 10 10 9 7 7 9 11 9 8 8 9 11 13 14 15 13 10 10 10 9 9 9 7 8 9 8 10 11 11 11 11 10 10 9 8 8 9 9 11 11 10 10 9 8 10 9 11 10 6 17 38 36 19 10 5 3 8 11 17 30 28 14 17 27 22 11 5 4 14 28
5 9 15 17 13 11 11 11 9 8 6 4 6 9 11 11 9 8 8 9 10 9 8 7 9 10 12 14 15 13 11 9 9 10 10 9 9 8 8 8 8 9 10 10 11 11 11 11 9 7 8 8 7 9 10 10 11 9 8 9 8 10 13 8 5 22 37 33 20 10 4 7 10 11 22 32 24 17 24 23 12 12 19 20 16
13 18 20 16 12 11 11 9 7 7 5 6 10 13 11 9 8 8 9 10 9 8 7 8 10 11 12 15 14 11 10 9 10 11 10 9 10 9 8 8 9 9 9 9 9 10 11 12 10 8 7 8 7 7 8 8 10 10 8 9 9 8 11 13 6 7 23 35 34 22 7 3 9 10 12 24 31 28 25 20 12 13 18 14 11
19 18 15 13 12 11 9 6 4 5 7 11 15 14 9 7 8 9 10 9 8 8 8 9 11 12 13 14 12 9 9 9 9 10 10 9 10 9 8 8 8 8 9 8 9 10 11 12 11 9 9 8 7 7 8 6 7 10 9 9 11 8 8 13 12 5 9 20 33 35 21 5 4 9 10 14 24 31 30 20 12 18 21 13 12
16 13 12 14 14 11 7 3 3 8 14 15 13 10 7 7 9 10 10 9 8 8 9 9 11 12 12 12 10 8 9 9 8 9 9 9 9 8 8 9 8 7 8 7 8 11 11 11 12 11 10 10 8 7 9 7 5 8 9 7 9 10 8 10 13 10 7 8 17 32 36 22 7 4 7 10 15 23 32 27 15 14 15 9 8
13 14 13 14 13 9 5 4 8 13 14 12 10 9 7 8 11 11 10 8 7 8 10 10 11 12 12 10 8 7 7 7 7 7 6 7 8 8 8 9 8 7 8 8 8 10 10 10 12 12 10 11 10 8 9 9 6 6 8 7 7 9 9 9 11 12 11 8 7 16 30 35 27 12 4 6 10 13 22 30 28 21 14 6 7
15 16 13 13 11 6 4 10 15 14 10 10 12 10 7 9 12 10 8 8 8 9 10 11 11 11 10 8 7 6 7 6 5 6 6 5 6 7 7 8 9 7 8 8 7 9 9 9 11 12 11 11 11 9 9 10 9 7 7 7 6 7 8 9 10 11 13 12 9 6 12 26 37 32 15 6 8 9 12 18 25 30 26 15 9
14 14 13 11 8 6 11 17 16 11 9 12 12 8 7 10 10 9 9 8 8 10 10 10 10 10 9 8 7 5 5 6 5 5 5 4 5 6 6 7 8 8 8 8 7 7 8 8 8 10 11 10 10 11 9 9 10 9 8 7 6 6 7 8 8 10 11 11 12 11 6 8 23 36 33 21 11 6 7 10 14 22 29 27 19
13 14 10 7 7 12 18 18 11 9 14 15 10 6 8 10 9 9 10 9 8 11 11 9 9 9 6 6 7 6 5 6 5 5 5 5 5 6 5 5 7 8 8 8 8 7 8 8 8 9 9 9 9 10 10 9 10 10 9 9 8 7 7 7 7 8 10 10 12 14 12 7 7 17 29 36 30 16 8 6 8 12 19 24 25
15 17 10 7 12 18 16 12 10 14 15 11 7 6 8 9 9 9 10 8 8 10 10 9 9 8 5 5 6 6 6 6 6 6 7 6 5 6 5 5 7 7 7 7 8 7 7 8 8 7 8 8 8 8 8 8 9 9 10 10 10 9 8 8 7 7 8 9 10 12 13 13 10 7 11 23 34 34 24 13 8 6 9 16 22
18 17 9 8 14 15 11 11 12 13 11 8 6 8 9 9 9 8 8 9 9 8 8 9 9 7 6 6 6 5 5 6 6 5 6 5 5 6 6 5 6 7 7 6 7 8 8 8 8 7 7 7 7 7 7 7 8 8 9 9 10 10 9 8 8 7 7 7 8 10 11 12 13 13 9 8 16 28 34 30 22 12 6 6 11
15 9 6 9 13 11 10 13 12 9 9 9 8 9 10 9 8 8 8 9 9 7 7 9 8 6 5 5 6 6 5 4 4 4 5 6 6 5 6 6 6 6 7 6 6 7 8 8 8 7 7 6 6 5 6 6 6 6 7 8 8 9 9 9 9 9 8 7 6 7 9 11 11 13 14 11 8 11 19 27 32 30 21 11 7
5 9 12 14 14 10 10 13 11 8 9 9 8 10 10 8 7 8 8 8 8 7 7 7 7 7 6 4 5 7 5 4 5 5 4 5 6 5 5 6 6 5 6 7 6 7 7 7 8 8 7 6 6 5 5 5 5 5 6 6 7 7 8 9 10 9 9 10 8 5 6 8 9 10 12 14 13 10 9 12 20 28 32 30 22
14 23 19 12 10 9 10 11 10 9 9 9 8 9 10 8 8 8 7 7 7 7 6 5 4 5 6 5 5 6 5 4 4 4 3 4 5 5 6 6 6 6 6 7 7 7 7 7 7 8 7 7 6 5 5 5 4 4 4 4 6 6 6 7 8 9 9 10 10 9 7 5 6 8 10 11 13 13 12 10 10 13 19 27 30
24 21 11 7 9 11 10 10 11 10 9 8 9 10 9 8 7 6 6 7 6 5 5 5 4 4 5 5 5 5 5 4 3 3 4 5 5 5 6 6 6 6 6 6 6 7 7 7 7 7 7 7 6 5 5 4 4 4 4 4 4 5 5 6 6 7 8 9 9 10 10 8 6 6 7 8 10 12 12 13 12 11 11 13 17
15 10 8 9 10 10 9 10 11 10 9 8 9 9 8 6 6 6 6 6 5 5 5 5 5 6 6 5 3 3 4 4 4 5 6 6 6 6 7 6 6 7 6 6 6 6 7 7 7 6 6 7 6 6 5 4 3 4 4 4 4 3 4 5 5 5 6 7 7 8 9 10 10 8 6 6 7 8 10 12 12 12 13 11 10
8 9 11 10 8 7 10 11 10 9 9 9 8 8 7 6 6 7 6 5 5 6 7 6 6 7 6 5 4 3 3 3 4 6 7 7 7 6 6 6 7 7 6 6 6 6 6 7 8 7 7 7 6 6 5 4 4 5 4 3 4 4 3 3 4 4 4 5 6 6 6 7 9 10 9 8 6 6 7 9 10 11 13 13 12
9 8 7 7 8 9 11 11 10 8 8 9 8 7 7 7 6 6 6 5 6 7 7 7 6 5 4 4 4 3 3 4 5 6 7 8 8 7 7 7 7 7 7 7 7 6 6 7 7 8 8 7 6 6 6 5 5 5 4 4 4 4 4 4 3 4 4 4 4 5 5 5 6 7 8 9 9 8 6 5 7 8 10 11 12
9 8 5 6 9 11 12 12 11 9 8 8 8 7 7 6 6 6 5 6 6 6 7 6 6 5 4 4 4 3 4 5 6 6 7 8 7 7 7 7 7 7 7 7 7 6 6 6 6 7 7 7 7 7 6 6 6 5 4 5 5 4 5 5 4 4 4 4 4 4 4 4 5 5 6 7 8 9 9 7 6 6 6 8 10
12 9 8 8 9 12 14 13 10 8 8 7 7 7 6 6 5 5 5 5 5 5 5 5 5 5 4 4 4 4 5 5 7 7 7 7 6 7 6 6 7 7 7 7 7 7 6 6 6 6 6 7 8 7 6 6 6 5 5 5 5 5 5 5 5 5 4 4 4 4 4 4 4 4 4 5 5 6 8 8 8 7 6 5 5
12 9 10 12 12 13 13 11 9 8 7 7 6 7 7 6 5 5 4 4 4 4 4 4 4 4 4 4 4 5 5 6 7 7 7 6 7 6 6 6 7 7 8 8 7 7 7 6 6 6 6 6 6 7 7 7 6 6 6 5 5 5 5 5 5 6 5 5 5 4 4 5 5 4 3 4 4 4 5 6 7 8 8 7 6
13 11 11 12 13 13 11 9 8 7 7 7 8 7 7 7 7 6 5 4 4 3 4 4 4 5 5 4 5 6 7 6 6 6 6 7 7 6 7 8 7 7 8 8 7 7 8 7 6 5 6 5 5 5 6 7 6 7 7 6 5 5 5 5 5 6 6 6 6 5 4 4 5 5 4 4 4 4 4 5 5 6 6 7 7
Height
5797 5797 5797 5797 5797 5797 5798 5797 5797 5797 5796 5795 5794 5793 5792 5791 5790 5788 5787 5786 5784 5783 5781 5780 5778 5777 5776 5774 5773 5772 5770 5769 5767 5765 5763 5761 5759 5757 5754 5752 5750 5748 5745 5743 5740 5738 5735 5733 5730 5728 5725 5723 5721 5718 5716 5714 5711 5709 5707 5705 5703 5700 5699 5697 5696 5697 5697 5695 5692 5692 5691 5691 5691 5690 5689 5690 5688 5687 5685 5685 5686 5687 5688 5689 5691
5796 5796 5796 5796 5796 5796 5796 5795 5795 5794 5793 5792 5791 5790 5789 5788 5786 5785 5784 5782 5781 5779 5778 5777 5775 5774 5772 5771 5770 5768 5767 5765 5764 5762 5760 5757 5755 5753 5750 5748 5746 5743 5741 5738 5736 5733 5731 5728 5725 5723 5720 5717 5715 5712 5710 5707 5705 5702 5700 5698 5696 5693 5691 5690 5688 5688 5689 5688 5685 5683 5682 5681 5682 5681 5680 5680 5681 5680 5679 5678 5678 5678 5679 5681 5683
5794 5795 5794 5794 5794 5794 5793 5793 5792 5791 5790 5789 5788 5787 5786 5784 5783 5782 5780 5779 5777 5776 5775 5773 5772 5771 5769 5768 5766 5765 5764 5762 5760 5758 5756 5754 5751 5749 5746 5744 5741 5739 5736 5734 5731 5728 5726 5723 5720 5717 5714 5711 5708 5706 5703 5700 5698 5695 5693 5690 5688 5686 5683 5681 5680 5679 5679 5679 5678 5675 5674 5673 5672 5672 5670 5670 5670 5671 5672 5671 5670 5670 5671 5672 5674
5792 5792 5792 5792 5791 5791 5790 5790 5788 5788 5787 5786 5785 5784 5782 5781 5780 5778 5777 5775 5774 5773 5772 5770 5769 5767 5766 5764 5763 5762 5760 5758 5756 5754 5752 5750 5747 5745 5742 5740 5737 5734 5732 5729 5726 5723 5721 5718 5715 5712 5708 5705 5702 5699 5696 5694 5691 5688 5685 5683 5680 5678 5676 5673 5671 5670 5669 5669 5668 5667 5665 5663 5663 5662 5661 5661 5661 5660 5661 5662 5662 5662 5663 5663 5665
5790 5790 5789 5789 5788 5788 5787 5786 5785 5785 5784 5783 5782 5780 5779 5778 5776 5775 5774 5772 5771 5770 5768 5767 5766 5764 5763 5761 5760 5759 5757 5755 5753 5750 5748 5746 5743 5741 5738 5736 5733 5730 5727 5724 5721 5718 5715 5712 5709 5706 5702 5699 5696 5693 5690 5686 5683 5680 5677 5675 5672 5669 5667 5665 5662 5660 5659 5658 5658 5657 5655 5653 5652 5652 5651 5651 5651 5651 5650 5650 5651 5653 5654 5655 5656
5787 5787 5786 5786 5785 5785 5784 5783 5782 5782 5781 5780 5778 5777 5776 5774 5773 5772 5771 5769 5768 5767 5765 5764 5763 5761 5760 5759 5757 5755 5753 5751 5749 5747 5744 5742 5739 5736 5734 5731 5728 5725 5722 5719 5716 5713 5710 5707 5704 5700 5696 5693 5689 5686 5683 5680 5676 5673 5669 5667 5664 5661 5658 5656 5653 5651 5649 5647 5646 5646 5645 5643 5641 5640 5639 5639 5640 5640 5640 5640 5641 5641 5643 5645 5647
5784 5783 5783 5783 5783 5782 5781 5780 5780 5779 5778 5776 5775 5774 5772 5771 5770 5769 5767 5766 5765 5764 5762 5761 5759 5758 5757 5756 5754 5752 5750 5747 5745 5743 5740 5738 5735 5732 5730 5727 5724 5721 5717 5714 5711 5708 5705 5702 5698 5695 5691 5687 5683 5680 5677 5673 5669 5665 5662 5659 5656 5653 5650 5647 5644 5642 5639 5638 5636 5634 5634 5632 5630 5629 5628 5627 5627 5628 5628 5629 5631 5631 5631 5633 5636
5781 5781 5780 5780 5780 5779 5778 5778 5777 5776 5774 5773 5772 5770 5769 5768 5767 5766 5764 5763 5762 5760 5759 5757 5756 5755 5753 5752 5750 5748 5746 5744 5741 5739 5736 5734 5731 5728 5726 5723 5720 5716 5713 5709 5706 5703 5699 5696 5693 5689 5685 5681 5677 5673 5669 5666 5663 5658 5655 5651 5648 5645 5642 5639 5636 5633 5630 5628 5626 5624 5623 5622 5620 5619 5617 5615 5614 5615 5616 5616 5619 5621 5622 5622 5625
5778 5778 5778 5777 5777 5776 5775 5774 5773 5772 5771 5769 5768 5767 5766 5765 5764 5763 5761 5760 5759 5758 5756 5754 5753 5751 5750 5748 5746 5744 5742 5740 5737 5735 5733 5730 5727 5725 5722 5719 5715 5712 5709 5705 5701 5698 5694 5691 5687 5683 5679 5675 5670 5666 5663 5659 5655 5651 5648 5644 5641 5637 5634 5631 5627 5624 5622 5619 5616 5614 5612 5611 5609 5608 5606 5604 5602 5602 5603 5604 5606 5608 5610 5613 5615
5775 5775 5775 5774 5774 5773 5772 5771 5770 5769 5767 5766 5765 5764 5763 5762 5761 5760 5759 5758 5756 5755 5753 5751 5750 5748 5746 5745 5743 5741 5739 5736 5734 5732 5729 5727 5724 5721 5718 5714 5711 5708 5704 5701 5697 5693 5689 5685 5681 5678 5674 5670 5665 5661 5657 5653 5648 5644 5640 5636 5633 5629 5626 5622 5618 5615 5612 5609 5605 5602 5600 5599 5597 5595 5594 5593 5591 5590 5590 5591 5593 5595 5597 5600 5605
5772 5772 5771 5771 5770 5769 5769 5768 5767 5765 5764 5763 5762 5760 5759 5758 5758 5757 5756 5754 5753 5751 5750 5748 5746 5745 5743 5741 5740 5737 5735 5733 5731 5728 5726 5723 5720 5717 5713 5710 5707 5703 5700 5696 5692 5688 5684 5680 5676 5672 5668 5665 5660 5656 5652 5648 5643 5639 5634 5630 5625 5621 5617 5613 5610 5606 5602 5598 5595 5591 5588 5587 5585 5582 5581 5579 5579 5578 5577 5577 5580 5583 5584 5587 5593
5769 5768 5768 5767 5767 5766 5765 5764 5763 5762 5761 5759 5758 5757 5756 5755 5755 5754 5752 5751 5749 5748 5746 5745 5743 5742 5740 5738 5736 5734 5732 5729 5727 5725 5722 5719 5715 5712 5709 5706 5702 5699 5695 5691 5687 5682 5679 5674 5670 5667 5663 5660 5656 5651 5647 5643 5638 5634 5629 5624 5619 5614 5609 5604 5600 5596 5592 5588 5584 5580 5576 5573 5572 5570 5567 5565 5565 5565 5565 5565 5565 5567 5571 5574 5579
5765 5765 5764 5764 5764 5763 5762 5761 5760 5758 5757 5756 5755 5754 5753 5752 5751 5750 5749 5748 5746 5744 5743 5741 5740 5739 5737 5735 5733 5730 5728 5726 5723 5721 5718 5714 5711 5708 5704 5701 5698 5694 5690 5686 5682 5678 5674 5670 5666 5662 5659 5655 5651 5647 5643 5639 5634 5629 5624 5619 5614 5608 5603 5597 5591 5586 5581 5576 5573 5568 5563 5559 5558 5556 5553 5550 5550 5550 5551 5552 5551 5551 5555 5560 5564
5762 5761 5761 5761 5760 5759 5758 5757 5756 5755 5754 5753 5752 5751 5750 5749 5748 5747 5746 5745 5743 5741 5740 5738 5737 5735 5734 5732 5729 5727 5725 5722 5719 5717 5713 5710 5707 5704 5700 5697 5693 5689 5686 5682 5678 5674 5670 5666 5662 5658 5654 5651 5647 5643 5638 5634 5629 5624 5619 5613 5608 5602 5596 5590 5583 5577 5570 5565 5561 5557 5553 5548 5545 5543 5541 5538 5536 5535 5535 5536 5537 5537 5539 5544 5549
5758 5758 5758 5757 5757 5756 5755 5754 5753 5752 5751 5750 5749 5748 5747 5746 5745 5744 5743 5741 5740 5739 5737 5736 5734 5732 5730 5728 5726 5724 5721 5718 5716 5712 5709 5706 5703 5700 5696 5692 5689 5685 5681 5677 5673 5669 5666 5662 5659 5655 5650 5646 5642 5638 5634 5629 5624 5619 5614 5608 5602 5596 5589 5582 5574 5568 5562 5557 5553 5550 5547 5543 5538 5534 5532 5529 5526 5524 5522 5521 5522 5521 5523 5528 5535
5755 5754 5754 5754 5753 5752 5751 5750 5749 5748 5747 5746 5745 5744 5743 5742 5742 5741 5740 5738 5737 5736 5734 5732 5731 5729 5727 5725 5722 5720 5717 5715 5711 5708 5705 5702 5699 5695 5692 5688 5685 5681 5677 5674 5670 5666 5662 5659 5655 5651 5647 5642 5638 5633 5629 5624 5619 5614 5608 5602 5596 5589 5581 5574 5567 5562 5557 5553 5550 5546 5542 5537 5532 5527 5524 5521 5519 5516 5513 5511 5509 5507 5509 5513 5519
5751 5751 5750 5750 5749 5748 5747 5746 5746 5745 5744 5743 5742 5741 5740 5739 5738 5738 5737 5735 5734 5733 5731 5729 5727 5725 5723 5721 5719 5716 5713 5711 5708 5705 5702 5698 5695 5692 5688 5685 5681 5677 5674 5670 5667 5663 5659 5655 5651 5647 5643 5639 5634 5630 5625 5620 5614 5609 5603 5597 5590 5582 5575 5568 5563 5559 5555 5551 5547 5542 5536 5531 5526 5522 5518 5514 5511 5507 5504 5503 5500 5496 5497 5499 5502
5747 5747 5747 5746 5745 5745 5744 5743 5742 5741 5740 5740 5739 5738 5737 5736 5736 5735 5734 5732 5731 5730 5728 5726 5724 5722 5720 5717 5715 5712 5710 5707 5704 5701 5698 5695 5691 5688 5685 5681 5678 5674 5671 5667 5664 5660 5657 5652 5648 5644 5640 5635 5631 5626 5621 5616 5610 5604 5598 5592 5585 5577 5570 5564 5561 5557 5553 5548 5543 5537 5530 5524 5519 5516 5512 5507 5503 5498 5494 5493 5491 5488 5487 5487 5488
5743 5743 5742 5742 5741 5741 5740 5739 5738 5738 5737 5736 5735 5735 5734 5734 5733 5732 5731 5729 5728 5726 5725 5723 5721 5719 5716 5714 5711 5709 5706 5704 5701 5698 5695 5692 5688 5685 5681 5678 5675 5671 5668 5665 5661 5657 5654 5650 5645 5641 5636 5632 5627 5622 5617 5611 5605 5599 5593 5587 5580 5572 5565 5561 5557 5554 5550 5545 5538 5531 5524 5518 5514 5509 5505 5501 5496 5491 5486 5484 5482 5481 5479 5478 5477
5739 5739 5739 5738 5738 5737 5736 5736 5735 5734 5734 5733 5732 5732 5731 5731 5730 5729 5728 5726 5725 5723 5722 5720 5718 5715 5713 5710 5708 5705 5703 5701 5698 5695 5692 5689 5685 5682 5679 5675 5672 5669 5666 5662 5659 5655 5651 5647 5643 5638 5634 5629 5624 5618 5613 5607 5602 5596 5590 5583 5576 5568 5562 5557 5554 5550 5546 5540 5534 5526 5520 5514 5509 5504 5500 5495 5490 5486 5481 5477 5475 5473 5471 5470 5468
5736 5736 5735 5735 5734 5733 5733 5732 5731 5731 5730 5730 5729 5729 5728 5728 5727 5726 5725 5723 5722 5720 5718 5716 5714 5712 5710 5707 5705 5703 5700 5698 5695 5692 5689 5686 5683 5680 5677 5673 5670 5666 5663 5660 5656 5653 5649 5645 5640 5636 5631 5626 5621 5615 5610 5605 5599 5593 5587 5579 5571 5564 5558 5554 5550 5546 5542 5537 5531 5524 5517 5512 5507 5501 5495 5490 5485 5480 5475 5471 5467 5464 5462 5460 5459
5732 5732 5732 5731 5731 5730 5729 5729 5728 5728 5727 5727 5726 5726 5725 5725 5724 5723 5721 5720 5718 5717 5715 5713 5711 5709 5706 5704 5702 5700 5698 5695 5692 5690 5687 5684 5681 5678 5674 5671 5668 5664 5661 5657 5654 5650 5646 5643 5639 5634 5629 5623 5618 5613 5608 5603 5598 5591 5585 5577 5569 5562 5556 5552 5548 5544 5540 5535 5529 5523 5515 5509 5503 5497 5492 5487 5481 5475 5471 5466 5462 5458 5454 5450 5448
5729 5729 5729 5728 5727 5726 5726 5725 5725 5724 5724 5724 5723 5723 5722 5722 5720 5719 5718 5717 5715 5713 5712 5710 5708 5706 5704 5702 5699 5697 5695 5693 5690 5687 5684 5681 5678 5675 5672 5669 5666 5662 5659 5656 5652 5648 5644 5641 5637 5632 5626 5621 5617 5612 5607 5602 5596 5589 5583 5576 5569 5562 5555 5550 5546 5542 5538 5534 5528 5521 5514 5506 5499 5494 5489 5484 5478 5473 5468 5463 5458 5453 5448 5443 5441
5725 5725 5725 5724 5723 5723 5722 5722 5722 5721 5721 5721 5720 5720 5719 5718 5717 5716 5715 5713 5712 5710 5708 5706 5705 5703 5701 5699 5697 5695 5692 5689 5687 5684 5681 5678 5675 5673 5670 5667 5664 5660 5657 5654 5650 5646 5643 5639 5634 5629 5624 5620 5616 5611 5605 5600 5594 5588 5581 5575 5568 5561 5555 5549 5545 5541 5537 5532 5527 5520 5513 5504 5497 5491 5485 5480 5476 5470 5465 5460 5455 5450 5444 5440 5437
5722 5722 5721 5720 5720 5719 5719 5718 5718 5718 5718 5717 5717 5717 5716 5715 5714 5712 5711 5710 5708 5707 5705 5704 5702 5700 5698 5697 5695 5692 5689 5687 5684 5681 5679 5676 5674 5671 5668 5665 5662 5659 5655 5652 5649 5645 5642 5637 5632 5627 5624 5620 5615 5610 5604 5598 5593 5587 5581 5575 5569 5562 5554 5548 5544 5540 5535 5531 5526 5519 5512 5505 5497 5490 5483 5478 5474 5469 5464 5459 5454 5449 5444 5440 5437
5718 5718 5717 5717 5716 5716 5715 5715 5715 5715 5714 5714 5714 5713 5712 5711 5710 5709 5708 5707 5705 5704 5702 5701 5699 5698 5696 5694 5692 5689 5687 5684 5682 5679 5677 5674 5672 5669 5666 5663 5660 5657 5653 5650 5647 5644 5640 5635 5631 5627 5624 5619 5614 5608 5603 5598 5592 5587 5581 5575 5569 5561 5553 5547 5543 5539 5534 5530 5525 5519 5513 5506 5498 5490 5484 5479 5474 5470 5465 5461 5456 5451 5446 5442 5438
5714 5714 5713 5713 5713 5712 5712 5712 5711 5711 5711 5711 5710 5710 5709 5708 5707 5706 5705 5703 5702 5701 5699 5698 5696 5695 5693 5691 5689 5686 5684 5682 5680 5677 5675 5673 5670 5667 5664 5662 5658 5655 5652 5649 5646 5643 5638 5634 5630 5627 5623 5618 5613 5608 5602 5597 5592 5587 5581 5575 5569 5562 5555 5548 5542 5537 5533 5529 5525 5520 5514 5508 5500 5492 5486 5481 5476 5471 5467 5462 5458 5454 5450 5446 5442
5710 5710 5709 5709 5709 5709 5708 5708 5708 5708 5708 5707 5707 5706 5705 5704 5703 5702 5701 5700 5699 5698 5696 5695 5694 5692 5690 5688 5686 5684 5682 5680 5678 5676 5673 5671 5668 5666 5663 5661 5657 5655 5652 5649 5645 5641 5637 5634 5631 5627 5622 5618 5613 5608 5602 5597 5592 5586 5581 5575 5569 5563 5557 5551 5544 5538 5534 5530 5525 5520 5515 5510 5503 5495 5488 5483 5479 5474 5470 5466 5462 5458 5455 5452 5448
5705 5705 5705 5705 5705 5705 5705 5705 5704 5704 5704 5704 5703 5703 5702 5701 5700 5699 5698 5697 5696 5695 5694 5692 5691 5689 5687 5686 5684 5682 5680 5678 5676 5674 5672 5669 5667 5665 5662 5660 5657 5654 5651 5647 5644 5640 5637 5633 5630 5626 5622 5617 5613 5608 5603 5597 5592 5586 5580 5575 5569 5564 5559 5552 5545 5538 5534 5530 5525 5521 5516 5511 5505 5499 5492 5487 5482 5478 5474 5470 5467 5463 5460 5458 5455
5701 5701 5701 5701 5701 5701 5701 5701 5701 5701 5701 5700 5700 5699 5699 5698 5697 5696 5695 5694 5693 5692 5691 5690 5688 5687 5685 5683 5682 5680 5678 5676 5674 5672 5670 5668 5666 5664 5661 5658 5656 5653 5649 5646 5642 5639 5636 5633 5629 5625 5621 5616 5612 5607 5602 5597 5592 5586 5581 5575 5570 5564 5559 5553 5546 5540 5535 5530 5526 5522 5517 5513 5508 5502 5496 5491 5487 5482 5479 5475 5472 5469 5467 5466 5463
5696 5696 5696 5696 5697 5697 5697 5697 5697 5697 5697 5697 5696 5696 5695 5694 5694 5693 5692 5692 5691 5690 5688 5687 5686 5684 5683 5681 5680 5678 5676 5675 5673 5671 5669 5667 5664 5662 5659 5657 5654 5651 5648 5644 5641 5638 5635 5632 5628 5624 5620 5615 5611 5607 5602 5597 5592 5587 5581 5576 5570 5565 5560 5554 5548 5543 5537 5532 5528 5524 5519 5515 5511 5506 5501 5496 5492 5488 5484 5481 5479 5476 5474 5474 5472
5691 5691 5692 5692 5692 5692 5693 5693 5693 5693 5694 5693 5693 5692 5692 5691 5691 5690 5689 5689 5688 5687 5686 5685 5683 5682 5681 5679 5678 5676 5675 5673 5671 5669 5667 5665 5663 5661 5658 5655 5653 5650 5646 5643 5640 5637 5634 5631 5626 5623 5619 5615 5610 5606 5602 5597 5592 5587 5582 5577 5571 5566 5561 5555 5549 5545 5540 5534 5529 5525 5521 5517 5514 5510 5505 5501 5497 5493 5489 5487 5485 5483 5481 5480 5480
5687 5687 5688 5688 5688 5688 5689 5689 5690 5690 5690 5690 5689 5689 5688 5688 5688 5687 5687 5686 5685 5684 5683 5682 5681 5680 5679 5677 5676 5674 5673 5671 5670 5668 5666 5664 5662 5659 5656 5654 5651 5648 5645 5642 5640 5637 5633 5629 5625 5622 5618 5614 5610 5606 5602 5597 5593 5588 5583 5578 5572 5567 5562 5557 5552 5548 5543 5537 5532 5527 5523 5520 5516 5513 5509 5505 5501 5498 5495 5492 5490 5489 5487 5487 5486
5682 5683 5684 5684 5684 5685 5685 5685 5686 5686 5686 5686 5686 5685 5685 5685 5685 5684 5684 5683 5682 5682 5681 5680 5679 5678 5676 5675 5674 5673 5671 5670 5668 5666 5664 5662 5660 5658 5655 5653 5650 5647 5644 5642 5639 5636 5632 5628 5624 5621 5617 5613 5610 5606 5602 5598 5593 5589 5584 5579 5574 5569 5565 5560 5555 5551 5546 5540 5535 5531 5526 5522 5519 5516 5513 5509 5506 5503 5500 5497 5495 5494 5493 5492 5492
5678 5679 5679 5680 5680 5681 5681 5681 5682 5682 5682 5682 5682 5682 5682 5682 5681 5681 5681 5680 5680 5679 5679 5678 5677 5676 5675 5674 5672 5671 5670 5668 5666 5665 5663 5661 5658 5656 5654 5652 5649 5646 5643 5641 5637 5634 5631 5627 5624 5620 5617 5613 5609 5606 5602 5598 5594 5590 5585 5581 5576 5571 5567 5562 5558 5553 5548 5543 5538 5534 5530 5525 5522 5518 5515 5512 5510 5507 5504 5502 5500 5498 5497 5496 5496
5674 5675 5675 5676 5676 5676 5677 5678 5678 5678 5678 5678 5679 5679 5679 5679 5678 5678 5678 5678 5677 5677 5676 5675 5674 5673 5673 5672 5670 5669 5668 5667 5665 5663 5661 5659 5657 5655 5653 5650 5648 5645 5642 5639 5636 5633 5630 5626 5623 5620 5616 5613 5609 5606 5602 5598 5594 5590 5586 5582 5577 5573 5569 5564 5560 5555 5551 5546 5542 5537 5533 5529 5525 5521 5518 5515 5513 5510 5508 5506 5504 5502 5501 5500 5500
5670 5670 5671 5671 5672 5673 5673 5674 5674 5674 5675 5675 5675 5675 5675 5675 5675 5675 5675 5675 5675 5674 5674 5673 5672 5672 5671 5670 5669 5667 5666 5665 5663 5661 5660 5658 5656 5654 5651 5649 5646 5644 5642 5639 5635 5632 5629 5626 5623 5620 5616 5613 5609 5606 5602 5598 5595 5591 5587 5583 5578 5574 5570 5566 5561 5558 5553 5549 5545 5541 5537 5533 5529 5525 5521 5519 5516 5514 5512 5510 5508 5506 5505 5504 5504
5665 5665 5666 5667 5668 5669 5670 5670 5670 5671 5671 5671 5672 5672 5672 5672 5672 5672 5672 5672 5672 5672 5671 5670 5670 5669 5669 5668 5667 5666 5664 5663 5661 5660 5658 5656 5653 5651 5649 5647 5645 5643 5640 5638 5635 5631 5628 5625 5622 5619 5616 5613 5609 5606 5602 5599 5595 5592 5588 5584 5580 5576 5572 5568 5564 5560 5556 5552 5549 5545 5540 5536 5533 5529 5525 5522 5519 5517 5515 5513 5512 5510 5509 5508 5507
5660 5661 5662 5663 5664 5665 5665 5666 5666 5667 5667 5668 5668 5669 5669 5669 5669 5670 5670 5670 5670 5669 5669 5669 5668 5667 5666 5665 5664 5663 5662 5661 5659 5657 5656 5654 5652 5650 5648 5646 5644 5641 5639 5636 5634 5631 5628 5625 5622 5619 5616 5613 5609 5606 5603 5599 5596 5592 5589 5585 5582 5578 5574 5571 5567 5563 5559 5555 5551 5547 5544 5540 5536 5532 5529 5526 5523 5520 5518 5516 5515 5514 5513 5511 5510
5656 5657 5658 5660 5660 5661 5661 5662 5663 5663 5664 5664 5665 5665 5666 5666 5667 5667 5667 5667 5667 5667 5667 5666 5666 5665 5664 5663 5662 5661 5660 5659 5657 5656 5654 5653 5651 5649 5647 5645 5642 5640 5637 5635 5632 5630 5627 5625 5622 5619 5616 5612 5609 5606 5603 5600 5596 5593 5590 5586 5583 5579 5576 5572 5568 5565 5561 5557 5553 5550 5547 5543 5540 5536 5533 5530 5527 5524 5521 5519 5517 5516 5515 5514 5513
5652 5653 5654 5655 5656 5657 5658 5658 5659 5660 5661 5661 5662 5662 5663 5663 5664 5664 5664 5664 5664 5664 5664 5664 5663 5663 5662 5661 5660 5659 5658 5657 5655 5654 5652 5651 5649 5647 5645 5643 5640 5638 5636 5633 5631 5629 5627 5624 5621 5618 5615 5612 5609 5606 5603 5600 5597 5594 5591 5587 5584 5580 5577 5574 5570 5567 5563 5560 5556 5552 5549 5546 5543 5540 5537 5533 5530 5527 5525 5523 5520 5519 5517 5516 5516
5648 5649 5650 5650 5651 5653 5654 5655 5656 5656 5657 5658 5659 5659 5660 5660 5661 5661 5661 5661 5661 5661 5661 5661 5661 5660 5659 5658 5657 5657 5656 5654 5653 5651 5649 5648 5646 5644 5643 5641 5638 5636 5634 5632 5630 5627 5625 5623 5620 5618 5615 5612 5609 5607 5604 5601 5598 5595 5591 5588 5585 5582 5578 5575 5572 5568 5565 5562 5559 5555 5552 5549 5546 5543 5540 5537 5534 5531 5529 5526 5524 5522 5520 5518 5517
5643 5644 5645 5646 5647 5649 5650 5651 5652 5653 5654 5655 5656 5656 5657 5657 5658 5658 5658 5658 5659 5659 5658 5658 5658 5658 5657 5655 5654 5653 5652 5651 5650 5649 5647 5645 5644 5642 5640 5638 5636 5634 5632 5630 5628 5626 5624 5621 5619 5617 5614 5612 5609 5606 5604 5601 5598 5595 5592 5589 5586 5583 5580 5577 5573 5570 5567 5564 5561 5558 5555 5552 5548 5546 5543 5541 5538 5535 5532 5530 5528 5526 5524 5522 5520
5639 5640 5641 5642 5644 5645 5646 5647 5649 5650 5651 5652 5652 5653 5654 5654 5655 5655 5655 5656 5656 5656 5656 5655 5655 5655 5654 5653 5652 5651 5649 5648 5647 5646 5644 5643 5641 5639 5638 5636 5634 5632 5630 5628 5626 5624 5622 5619 5617 5615 5613 5611 5608 5606 5603 5601 5598 5595 5592 5589 5586 5583 5581 5578 5575 5572 5569 5566 5563 5560 5557 5554 5551 5549 5546 5543 5541 5538 5536 5533 5531 5529 5527 5525 5523
5635 5636 5637 5639 5640 5642 5643 5644 5645 5646 5647 5648 5649 5650 5651 5651 5652 5652 5652 5653 5653 5653 5653 5652 5652 5651 5651 5650 5649 5648 5647 5645 5644 5643 5641 5640 5638 5637 5635 5633 5631 5629 5628 5625 5623 5622 5620 5618 5615 5613 5611 5609 5607 5605 5602 5600 5597 5595 5592 5589 5587 5584 5581 5578 5576 5573 5570 5567 5564 5561 5558 5556 5553 5551 5548 5546 5543 5541 5539 5536 5534 5532 5530 5528 5526
5630 5632 5634 5636 5637 5638 5639 5640 5642 5643 5644 5645 5646 5647 5647 5648 5648 5649 5649 5649 5650 5649 5649 5649 5648 5648 5647 5646 5646 5645 5644 5642 5641 5640 5639 5637 5635 5634 5632 5630 5628 5627 5625 5623 5621 5619 5617 5615 5613 5611 5609 5607 5605 5603 5601 5598 5596 5594 5591 5589 5586 5584 5581 5578 5576 5573 5570 5568 5565 5562 5559 5557 5554 5552 5550 5547 5545 5543 5541 5538 5536 5535 5533 5530 5528
5627 5629 5630 5632 5633 5635 5636 5637 5638 5639 5640 5641 5642 5643 5644 5645 5645 5645 5646 5646 5646 5646 5646 5646 5645 5644 5643 5643 5642 5641 5640 5639 5638 5636 5635 5633 5632 5630 5629 5628 5626 5624 5622 5620 5618 5617 5615 5613 5611 5609 5607 5605 5603 5601 5599 5597 5594 5592 5590 5588 5585 5583 5581 5578 5576 5573 5571 5568 5566 5563 5560 5557 5555 5553 5550 5548 5546 5544 5542 5540 5538 5536 5534 5532 5530
5624 5626 5627 5628 5629 5631 5632 5634 5635 5636 5637 5638 5639 5640 5641 5641 5641 5642 5642 5642 5643 5642 5642 5642 5641 5640 5639 5638 5637 5637 5636 5635 5634 5633 5631 5630 5628 5626 5625 5624 5623 5621 5619 5617 5615 5613 5611 5610 5608 5606 5604 5602 5600 5598 5596 5594 5592 5590 5588 5586 5584 5581 5579 5577 5575 5573 5570 5568 5566 5563 5561 5558 5556 5553 5551 5549 5547 5545 5543 5541 5539 5537 5535 5533 5532
5621 5622 5623 5624 5626 5627 5629 5630 5631 5632 5633 5634 5635 5636 5637 5637 5638 5638 5639 5639 5639 5639 5638 5638 5637 5637 5636 5635 5633 5632 5631 5630 5629 5628 5627 5626 5624 5622 5621 5620 5619 5618 5617 5615 5612 5609 5608 5606 5605 5603 5601 5599 5597 5595 5593 5591 5589 5587 5585 5584 5582 5580 5577 5575 5573 5571 5569 5567 5565 5563 5561 5558 5556 5554 5551 5549 5547 5545 5543 5541 5539 5537 5535 5534 5532
5618 5619 5620 5621 5622 5624 5625 5626 5627 5628 5630 5630 5631 5632 5633 5634 5634 5634 5635 5635 5635 5634 5634 5634 5633 5633 5632 5631 5630 5629 5628 5627 5625 5624 5622 5621 5620 5618 5616 5615 5614 5613 5612 5611 5610 5607 5605 5602 5601 5599 5598 5596 5594 5592 5590 5588 5586 5584 5582 5581 5579 5577 5575 5573 5571 5569 5567 5565 5564 5562 5560 5558 5556 5554 5551 5549 5547 5545 5543 5541 5539 5537 5535 5533 5532
5614 5616 5617 5618 5619 5620 5621 5622 5623 5625 5626 5627 5628 5629 5629 5630 5630 5631 5631 5631 5630 5630 5630 5629 5628 5628 5627 5626 5626 5625 5624 5623 5621 5620 5618 5617 5615 5614 5612 5610 5609 5608 5607 5606 5605 5604 5602 5600 5597 5595 5593 5592 5591 5589 5587 5585 5583 5581 5579 5577 5576 5574 5572 5570 5568 5567 5565 5563 5561 5560 5558 5556 5554 5552 5550 5549 5546 5544 5542 5540 5538 5536 5534 5533 5531